TimeEST,TemperatureF,Dew PointF,Humidity,Sea Level PressureIn,VisibilityMPH,Wind Direction,Wind SpeedMPH,Gust SpeedMPH,PrecipitationIn,Events,Conditions,WindDirDegrees,DateUTC
12:30 AM,12.9,8.1,81,30.00,2.5,SW,9.2,-,0.00,Snow,Light Snow,220,2014-01-23 05:30:00
12:53 AM,14.0,9.0,80,30.05,2.5,SSW,9.2,-,0.00,Snow,Light Snow,210,2014-01-23 05:53:00
12:58 AM,14.0,9.0,80,30.00,4.0,SW,11.5,-,0.00,Snow,Light Snow,230,2014-01-23 05:58:00
1:08 AM,14.0,9.0,80,30.00,2.0,SSW,10.4,-,0.00,Snow,Light Snow,210,2014-01-23 06:08:00
1:18 AM,14.0,9.0,80,29.99,3.0,SW,11.5,-,0.00,Snow,Light Snow,220,2014-01-23 06:18:00
1:31 AM,14.0,9.0,80,30.00,8.0,WSW,10.4,-,0.00,,Overcast,240,2014-01-23 06:31:00
1:53 AM,14.0,9.0,80,30.05,9.0,WSW,10.4,-,0.00,,Overcast,240,2014-01-23 06:53:00
2:53 AM,14.0,6.1,71,30.08,10.0,West,12.7,-,N/A,,Mostly Cloudy,260,2014-01-23 07:53:00
3:53 AM,10.9,3.0,70,30.12,4.0,West,13.8,23.0,0.00,Snow,Light Snow,270,2014-01-23 08:53:00
4:53 AM,9.0,1.9,73,30.15,9.0,West,15.0,24.2,0.00,,Overcast,270,2014-01-23 09:53:00
5:25 AM,8.1,1.0,73,30.12,10.0,West,13.8,21.9,N/A,,Overcast,260,2014-01-23 10:25:00
5:40 AM,8.1,1.0,73,30.13,10.0,West,12.7,20.7,N/A,,Overcast,280,2014-01-23 10:40:00
5:53 AM,8.1,1.0,73,30.20,10.0,West,10.4,21.9,N/A,,Overcast,270,2014-01-23 10:53:00
6:53 AM,6.1,-0.9,73,30.24,10.0,West,11.5,-,N/A,,Overcast,280,2014-01-23 11:53:00
7:53 AM,5.0,-2.9,70,30.28,10.0,WNW,9.2,-,N/A,,Overcast,290,2014-01-23 12:53:00
8:26 AM,5.0,-2.0,73,30.25,7.0,West,9.2,-,N/A,,Overcast,280,2014-01-23 13:26:00
8:37 AM,5.0,-2.0,73,30.26,2.0,West,10.4,-,0.00,Snow,Light Snow,280,2014-01-23 13:37:00
8:53 AM,5.0,-2.0,73,30.32,2.5,West,10.4,-,0.00,Snow,Light Snow,270,2014-01-23 13:53:00
9:03 AM,5.0,-2.0,73,30.27,3.0,West,12.7,19.6,0.00,Snow,Light Snow,260,2014-01-23 14:03:00
9:26 AM,6.1,-2.9,67,30.29,10.0,West,11.5,19.6,0.00,,Overcast,270,2014-01-23 14:26:00
9:53 AM,5.0,-4.0,66,30.37,10.0,WNW,11.5,-,0.00,,Overcast,290,2014-01-23 14:53:00
10:53 AM,6.1,-2.9,67,30.41,5.0,West,13.8,-,N/A,,Haze,270,2014-01-23 15:53:00
11:53 AM,6.1,-2.9,67,30.43,4.0,West,12.7,18.4,N/A,,Haze,260,2014-01-23 16:53:00
12:53 PM,7.0,-2.0,67,30.43,10.0,West,13.8,-,N/A,,Mostly Cloudy,270,2014-01-23 17:53:00
1:53 PM,8.1,-2.0,64,30.45,10.0,West,13.8,-,N/A,,Mostly Cloudy,270,2014-01-23 18:53:00
2:53 PM,9.0,-2.0,61,30.46,10.0,West,15.0,-,N/A,,Overcast,260,2014-01-23 19:53:00
3:53 PM,9.0,-2.0,61,30.49,10.0,WSW,12.7,-,N/A,,Overcast,250,2014-01-23 20:53:00
4:53 PM,8.1,-2.9,61,30.52,10.0,West,11.5,-,N/A,,Overcast,260,2014-01-23 21:53:00
5:53 PM,7.0,-2.9,64,30.54,8.0,West,11.5,-,N/A,,Overcast,260,2014-01-23 22:53:00
6:53 PM,6.1,-2.9,67,30.57,7.0,West,8.1,-,0.00,,Overcast,270,2014-01-23 23:53:00
7:53 PM,6.1,-2.0,69,30.58,5.0,West,10.4,-,N/A,,Haze,270,2014-01-24 00:53:00
8:17 PM,6.1,-2.0,69,30.52,3.0,West,9.2,-,0.00,Snow,Light Snow,270,2014-01-24 01:17:00
8:37 PM,6.1,-0.9,73,30.52,3.0,West,10.4,-,0.00,Snow,Light Snow,280,2014-01-24 01:37:00
8:53 PM,5.0,-2.0,73,30.59,5.0,West,9.2,-,0.00,Snow,Light Snow,270,2014-01-24 01:53:00
9:11 PM,5.0,-2.0,73,30.53,5.0,West,9.2,-,0.00,,Haze,270,2014-01-24 02:11:00
9:38 PM,5.0,-2.0,73,30.53,7.0,West,5.8,-,0.00,,Overcast,260,2014-01-24 02:38:00
9:53 PM,5.0,-2.0,73,30.60,4.0,West,8.1,-,0.00,Snow,Light Snow,260,2014-01-24 02:53:00
10:02 PM,3.9,-2.0,76,30.54,3.0,West,11.5,-,0.00,Snow,Light Snow,270,2014-01-24 03:02:00
10:53 PM,3.0,-4.0,73,30.61,6.0,West,5.8,-,0.00,,Haze,270,2014-01-24 03:53:00
11:53 PM,1.0,-5.1,75,30.60,9.0,WSW,5.8,-,N/A,,Overcast,250,2014-01-24 04:53:00